Data No.,UTC Date,UTC Time,Latitude,Longitude,Course(deg),Temp(degC)
6399,2008/9/28,13:17:00,00-00.0000N,144-52.7600E,342,30.123
6400,2008/9/28,13:18:00,00-00.2400N,144-52.6800E,343,30.136
6401,2008/9/28,13:19:00,00-00.4500N,144-52.6200E,343,30.138
6402,2008/9/28,13:20:00,00-00.6800N,144-52.5500E,343,30.152
6403,2008/9/28,13:21:00,00-00.9000N,144-52.4900E,343,30.163
6404,2008/9/28,13:22:00,00-01.1100N,144-52.4200E,343,30.164
6405,2008/9/28,13:23:00,00-01.3400N,144-52.3600E,343,30.174
6406,2008/9/28,13:24:00,00-01.5500N,144-52.2900E,343,30.184
6407,2008/9/28,13:25:00,00-01.7700N,144-52.2300E,343,30.205
6408,2008/9/28,13:26:00,00-01.9900N,144-52.1600E,343,30.191
6409,2008/9/28,13:27:00,00-02.2100N,144-52.0900E,343,30.169
6410,2008/9/28,13:28:00,00-02.4300N,144-52.0300E,342,30.1
6411,2008/9/28,13:29:00,00-02.6500N,144-51.9600E,343,30.067
6412,2008/9/28,13:30:00,00-02.8600N,144-51.9000E,343,30.05
6413,2008/9/28,13:31:00,00-03.0900N,144-51.8300E,343,30.032
6414,2008/9/28,13:32:00,00-03.3000N,144-51.7700E,343,30.021
6415,2008/9/28,13:33:00,00-03.5200N,144-51.7000E,343,30.016
6416,2008/9/28,13:34:00,00-03.7400N,144-51.6300E,343,30.007
6417,2008/9/28,13:35:00,00-03.9600N,144-51.5700E,343,30.006
6418,2008/9/28,13:36:00,00-04.1800N,144-51.5000E,342,30.008
6419,2008/9/28,13:37:00,00-04.4000N,144-51.4300E,343,30.015
6420,2008/9/28,13:38:00,00-04.6200N,144-51.3700E,344,30.018
6421,2008/9/28,13:39:00,00-04.8400N,144-51.3100E,344,30.019
6422,2008/9/28,13:40:00,00-05.0800N,144-51.2400E,344,30.02
6423,2008/9/28,13:41:00,00-05.3000N,144-51.1800E,344,30.014
6424,2008/9/28,13:42:00,00-05.5200N,144-51.1200E,343,30.01
6425,2008/9/28,13:43:00,00-05.7400N,144-51.0500E,343,30.01
6426,2008/9/28,13:44:00,00-05.9600N,144-50.9900E,343,30.008
6427,2008/9/28,13:45:00,00-06.1800N,144-50.9200E,343,30.022
6428,2008/9/28,13:46:00,00-06.4000N,144-50.8600E,343,30.039
6429,2008/9/28,13:47:00,00-06.6200N,144-50.7900E,343,30.063
6430,2008/9/28,13:48:00,00-06.8400N,144-50.7300E,343,30.092
6431,2008/9/28,13:49:00,00-07.0600N,144-50.6700E,344,30.097
6432,2008/9/28,13:50:00,00-07.2800N,144-50.6100E,343,30.06
6433,2008/9/28,13:51:00,00-07.5000N,144-50.5400E,343,30.016
6434,2008/9/28,13:52:00,00-07.7200N,144-50.4800E,344,30.019
6435,2008/9/28,13:53:00,00-07.9300N,144-50.4200E,343,30.029
6436,2008/9/28,13:54:00,00-08.1500N,144-50.3500E,342,30.029
6437,2008/9/28,13:55:00,00-08.3700N,144-50.2800E,342,30.029
6438,2008/9/28,13:56:00,00-08.5900N,144-50.2100E,342,30.028
6439,2008/9/28,13:57:00,00-08.8100N,144-50.1500E,342,30.029
6440,2008/9/28,13:58:00,00-09.0300N,144-50.0800E,343,30.021
6441,2008/9/28,13:59:00,00-09.2500N,144-50.0100E,342,29.993
6442,2008/9/28,14:00:00,00-09.4700N,144-49.9500E,342,29.98
6443,2008/9/28,14:01:00,00-09.7000N,144-49.8700E,343,29.981
6444,2008/9/28,14:02:00,00-09.9200N,144-49.8100E,342,29.958
6445,2008/9/28,14:03:00,00-10.1400N,144-49.7400E,342,29.948
6446,2008/9/28,14:04:00,00-10.3600N,144-49.6700E,342,29.933
6447,2008/9/28,14:05:00,00-10.5800N,144-49.6000E,342,29.936
6448,2008/9/28,14:06:00,00-10.8000N,144-49.5300E,342,29.913
6449,2008/9/28,14:07:00,00-11.0200N,144-49.4600E,343,29.925
6450,2008/9/28,14:08:00,00-11.2400N,144-49.4000E,342,29.926
6451,2008/9/28,14:09:00,00-11.4600N,144-49.3300E,342,29.927
6452,2008/9/28,14:10:00,00-11.6800N,144-49.2600E,342,29.933
6453,2008/9/28,14:11:00,00-11.9000N,144-49.1900E,342,29.935
6454,2008/9/28,14:12:00,00-12.1200N,144-49.1200E,343,29.946
6455,2008/9/28,14:13:00,00-12.3400N,144-49.0600E,342,29.95
6456,2008/9/28,14:14:00,00-12.5600N,144-48.9900E,343,29.94
6457,2008/9/28,14:15:00,00-12.7800N,144-48.9200E,343,29.932
6458,2008/9/28,14:16:00,00-13.0000N,144-48.8600E,342,29.923
6459,2008/9/28,14:17:00,00-13.2200N,144-48.7900E,343,29.917
6460,2008/9/28,14:18:00,00-13.4500N,144-48.7200E,343,29.908
6461,2008/9/28,14:19:00,00-13.6700N,144-48.6600E,343,29.892
6462,2008/9/28,14:20:00,00-13.8900N,144-48.5900E,342,29.871
6463,2008/9/28,14:21:00,00-14.1100N,144-48.5200E,342,29.875
6464,2008/9/28,14:22:00,00-14.3300N,144-48.4600E,342,29.884
6465,2008/9/28,14:23:00,00-14.5700N,144-48.3800E,343,29.857
6466,2008/9/28,14:24:00,00-14.8000N,144-48.3100E,342,29.851
6467,2008/9/28,14:25:00,00-15.0200N,144-48.2500E,343,29.843
6468,2008/9/28,14:26:00,00-15.2400N,144-48.1800E,343,29.855
6469,2008/9/28,14:27:00,00-15.4600N,144-48.1200E,343,29.858
6470,2008/9/28,14:28:00,00-15.6800N,144-48.0600E,343,29.882
6471,2008/9/28,14:29:00,00-15.9100N,144-47.9900E,343,29.886
6472,2008/9/28,14:30:00,00-16.1300N,144-47.9200E,343,29.849
6473,2008/9/28,14:31:00,00-16.3500N,144-47.8600E,343,29.848
6474,2008/9/28,14:32:00,00-16.5700N,144-47.7900E,343,29.882
6475,2008/9/28,14:33:00,00-16.7900N,144-47.7200E,343,29.901
6476,2008/9/28,14:34:00,00-17.0200N,144-47.6600E,343,29.906
6477,2008/9/28,14:35:00,00-17.2400N,144-47.5900E,343,29.911
6478,2008/9/28,14:36:00,00-17.4600N,144-47.5300E,343,29.913
6479,2008/9/28,14:37:00,00-17.6800N,144-47.4600E,343,29.925
6480,2008/9/28,14:38:00,00-17.9100N,144-47.4000E,343,29.914
6481,2008/9/28,14:39:00,00-18.1300N,144-47.3300E,343,29.91
6482,2008/9/28,14:40:00,00-18.3500N,144-47.2600E,342,29.897
6483,2008/9/28,14:41:00,00-18.5700N,144-47.2000E,342,29.911
6484,2008/9/28,14:42:00,00-18.7900N,144-47.1300E,342,29.911
6485,2008/9/28,14:43:00,00-19.0100N,144-47.0600E,342,29.884
6486,2008/9/28,14:44:00,00-19.2400N,144-46.9900E,342,29.916
6487,2008/9/28,14:45:00,00-19.4600N,144-46.9200E,343,29.943
6488,2008/9/28,14:46:00,00-19.6800N,144-46.8600E,343,29.933
6489,2008/9/28,14:47:00,00-19.9000N,144-46.7900E,343,29.916
6490,2008/9/28,14:48:00,00-20.1200N,144-46.7300E,343,29.94
6491,2008/9/28,14:49:00,00-20.3400N,144-46.6600E,343,29.944
6492,2008/9/28,14:50:00,00-20.5600N,144-46.6000E,343,29.934
6493,2008/9/28,14:51:00,00-20.7800N,144-46.5300E,343,29.94
6494,2008/9/28,14:52:00,00-21.0000N,144-46.4600E,343,29.933
6495,2008/9/28,14:53:00,00-21.2100N,144-46.4000E,342,29.924
6496,2008/9/28,14:54:00,00-21.4300N,144-46.3300E,342,29.918
6497,2008/9/28,14:55:00,00-21.6500N,144-46.2600E,342,29.911
6498,2008/9/28,14:56:00,00-21.8700N,144-46.1900E,342,29.889
6499,2008/9/28,14:57:00,00-22.0900N,144-46.1200E,342,29.908
6500,2008/9/28,14:58:00,00-22.3000N,144-46.0600E,342,29.918
6501,2008/9/28,14:59:00,00-22.5200N,144-45.9900E,342,29.907
6502,2008/9/28,15:00:00,00-22.7400N,144-45.9200E,342,29.9
6503,2008/9/28,15:01:00,00-22.9600N,144-45.8500E,342,29.88
6504,2008/9/28,15:02:00,00-23.1900N,144-45.7800E,342,29.844
6505,2008/9/28,15:03:00,00-23.4000N,144-45.7200E,342,29.82
6506,2008/9/28,15:04:00,00-23.6200N,144-45.6500E,343,29.813
6507,2008/9/28,15:05:00,00-23.8400N,144-45.5800E,343,29.822
6508,2008/9/28,15:06:00,00-24.0800N,144-45.5100E,343,29.834
6509,2008/9/28,15:07:00,00-24.3000N,144-45.4500E,343,29.866
6510,2008/9/28,15:08:00,00-24.5200N,144-45.3800E,343,29.902
6511,2008/9/28,15:09:00,00-24.7400N,144-45.3100E,342,29.927
6512,2008/9/28,15:10:00,00-24.9600N,144-45.2400E,342,29.93
6513,2008/9/28,15:11:00,00-25.1700N,144-45.1800E,342,29.939
6514,2008/9/28,15:12:00,00-25.3900N,144-45.1100E,342,29.944
6515,2008/9/28,15:13:00,00-25.6100N,144-45.0400E,343,29.968
6516,2008/9/28,15:14:00,00-25.8300N,144-44.9800E,343,29.972
6517,2008/9/28,15:15:00,00-26.0600N,144-44.9100E,342,29.975
6518,2008/9/28,15:16:00,00-26.2700N,144-44.8400E,342,29.978
6519,2008/9/28,15:17:00,00-26.4900N,144-44.7700E,342,29.982
6520,2008/9/28,15:18:00,00-26.7100N,144-44.7100E,342,29.969
6521,2008/9/28,15:19:00,00-26.9300N,144-44.6400E,342,29.942
6522,2008/9/28,15:20:00,00-27.1600N,144-44.5700E,342,29.918
6523,2008/9/28,15:21:00,00-27.3800N,144-44.5000E,342,29.905
6524,2008/9/28,15:22:00,00-27.5900N,144-44.4300E,342,29.868
6525,2008/9/28,15:23:00,00-27.8100N,144-44.3600E,343,29.841
6526,2008/9/28,15:24:00,00-28.0300N,144-44.2900E,342,29.83
6527,2008/9/28,15:25:00,00-28.2500N,144-44.2300E,343,29.828
6528,2008/9/28,15:26:00,00-28.4700N,144-44.1600E,342,29.82
6529,2008/9/28,15:27:00,00-28.7100N,144-44.0900E,343,29.829
6530,2008/9/28,15:28:00,00-28.9300N,144-44.0200E,342,29.819
6531,2008/9/28,15:29:00,00-29.1500N,144-43.9500E,343,29.807
6532,2008/9/28,15:30:00,00-29.3600N,144-43.8900E,342,29.787
6533,2008/9/28,15:31:00,00-29.5900N,144-43.8200E,342,29.779
6534,2008/9/28,15:32:00,00-29.8100N,144-43.7500E,342,29.796
6535,2008/9/28,15:33:00,00-30.0200N,144-43.6900E,342,29.817
6536,2008/9/28,15:34:00,00-30.2400N,144-43.6200E,343,29.823
6537,2008/9/28,15:35:00,00-30.4600N,144-43.5500E,343,29.812
6538,2008/9/28,15:36:00,00-30.6800N,144-43.4900E,343,29.823
6539,2008/9/28,15:37:00,00-30.9000N,144-43.4200E,343,29.816
6540,2008/9/28,15:38:00,00-31.1200N,144-43.3600E,343,29.816
6541,2008/9/28,15:39:00,00-31.3300N,144-43.2900E,343,29.818
6542,2008/9/28,15:40:00,00-31.5500N,144-43.2200E,342,29.821
6543,2008/9/28,15:41:00,00-31.7700N,144-43.1500E,342,29.83
6544,2008/9/28,15:42:00,00-31.9800N,144-43.0800E,342,29.823
6545,2008/9/28,15:43:00,00-32.2000N,144-43.0100E,342,29.826
6546,2008/9/28,15:44:00,00-32.4200N,144-42.9400E,342,29.845
6547,2008/9/28,15:45:00,00-32.6400N,144-42.8800E,342,29.845
6548,2008/9/28,15:46:00,00-32.8500N,144-42.8100E,342,29.858
6549,2008/9/28,15:47:00,00-33.0700N,144-42.7400E,342,29.867
6550,2008/9/28,15:48:00,00-33.2800N,144-42.6700E,342,29.873
6551,2008/9/28,15:49:00,00-33.5200N,144-42.6000E,341,29.893
6552,2008/9/28,15:50:00,00-33.7300N,144-42.5300E,341,29.864
6553,2008/9/28,15:51:00,00-33.9500N,144-42.4600E,341,29.872
6554,2008/9/28,15:52:00,00-34.1600N,144-42.3900E,342,29.882
6555,2008/9/28,15:53:00,00-34.3800N,144-42.3200E,342,29.886
6556,2008/9/28,15:54:00,00-34.6000N,144-42.2500E,342,29.885
6557,2008/9/28,15:55:00,00-34.8200N,144-42.1800E,341,29.918
6558,2008/9/28,15:56:00,00-35.0300N,144-42.1100E,342,29.907
6559,2008/9/28,15:57:00,00-35.2500N,144-42.0400E,341,29.888
6560,2008/9/28,15:58:00,00-35.4700N,144-41.9700E,342,29.876
6561,2008/9/28,15:59:00,00-35.6800N,144-41.9000E,341,29.88
6562,2008/9/28,16:00:00,00-35.9000N,144-41.8300E,341,29.909
6563,2008/9/28,16:01:00,00-36.1200N,144-41.7600E,342,29.901
6564,2008/9/28,16:02:00,00-36.3300N,144-41.6900E,341,29.917
6565,2008/9/28,16:03:00,00-36.5500N,144-41.6200E,342,29.921
6566,2008/9/28,16:04:00,00-36.7600N,144-41.5500E,342,29.937
6567,2008/9/28,16:05:00,00-36.9800N,144-41.4800E,342,29.951
6568,2008/9/28,16:06:00,00-37.2000N,144-41.4100E,342,29.971
6569,2008/9/28,16:07:00,00-37.4100N,144-41.3400E,342,29.966
6570,2008/9/28,16:08:00,00-37.6300N,144-41.2700E,342,29.996
6571,2008/9/28,16:09:00,00-37.8500N,144-41.2000E,342,29.991
6572,2008/9/28,16:10:00,00-38.0700N,144-41.1400E,342,29.967
6573,2008/9/28,16:11:00,00-38.3000N,144-41.0600E,341,29.968
6574,2008/9/28,16:12:00,00-38.5200N,144-40.9900E,341,29.968
6575,2008/9/28,16:13:00,00-38.7300N,144-40.9200E,341,29.963
6576,2008/9/28,16:14:00,00-38.9500N,144-40.8500E,341,29.959
6577,2008/9/28,16:15:00,00-39.1700N,144-40.7800E,341,29.959
6578,2008/9/28,16:16:00,00-39.3900N,144-40.7100E,342,29.96
6579,2008/9/28,16:17:00,00-39.6000N,144-40.6400E,342,29.971
6580,2008/9/28,16:18:00,00-39.8300N,144-40.5700E,342,29.97
6581,2008/9/28,16:19:00,00-40.0400N,144-40.5000E,342,29.973
6582,2008/9/28,16:20:00,00-40.2600N,144-40.4300E,342,29.953
6583,2008/9/28,16:21:00,00-40.4800N,144-40.3700E,342,29.959
6584,2008/9/28,16:22:00,00-40.7000N,144-40.3000E,342,29.952
6585,2008/9/28,16:23:00,00-40.9200N,144-40.2300E,342,29.956
6586,2008/9/28,16:24:00,00-41.1400N,144-40.1600E,342,29.97
6587,2008/9/28,16:25:00,00-41.3600N,144-40.0900E,342,29.977
6588,2008/9/28,16:26:00,00-41.5800N,144-40.0200E,342,29.974
6589,2008/9/28,16:27:00,00-41.8000N,144-39.9500E,342,29.976
6590,2008/9/28,16:28:00,00-42.0100N,144-39.8800E,342,29.981
6591,2008/9/28,16:29:00,00-42.2300N,144-39.8100E,342,29.971
6592,2008/9/28,16:30:00,00-42.4500N,144-39.7500E,342,29.975
6593,2008/9/28,16:31:00,00-42.6700N,144-39.6800E,342,29.972
6594,2008/9/28,16:32:00,00-42.9100N,144-39.6100E,342,29.971
6595,2008/9/28,16:33:00,00-43.1300N,144-39.5400E,342,29.974
6596,2008/9/28,16:34:00,00-43.3400N,144-39.4700E,342,29.959
6597,2008/9/28,16:35:00,00-43.5600N,144-39.4000E,341,29.957
6598,2008/9/28,16:36:00,00-43.7800N,144-39.3300E,342,29.97
6599,2008/9/28,16:37:00,00-44.0000N,144-39.2600E,342,29.981
6600,2008/9/28,16:38:00,00-44.2300N,144-39.1900E,342,29.974
6601,2008/9/28,16:39:00,00-44.4500N,144-39.1200E,342,29.971
6602,2008/9/28,16:40:00,00-44.6700N,144-39.0500E,342,29.987
6603,2008/9/28,16:41:00,00-44.8800N,144-38.9900E,342,29.981
6604,2008/9/28,16:42:00,00-45.1000N,144-38.9200E,342,30
6605,2008/9/28,16:43:00,00-45.3200N,144-38.8500E,342,30.002
6606,2008/9/28,16:44:00,00-45.5500N,144-38.7800E,342,30.002
6607,2008/9/28,16:45:00,00-45.7600N,144-38.7100E,343,30.005
6608,2008/9/28,16:46:00,00-45.9800N,144-38.6400E,342,30.002
6609,2008/9/28,16:47:00,00-46.2100N,144-38.5800E,342,29.999
6610,2008/9/28,16:48:00,00-46.4300N,144-38.5100E,342,29.99
6611,2008/9/28,16:49:00,00-46.6500N,144-38.4400E,342,29.973
6612,2008/9/28,16:50:00,00-46.8700N,144-38.3700E,341,29.975
6613,2008/9/28,16:51:00,00-47.0800N,144-38.3000E,341,29.967
6614,2008/9/28,16:52:00,00-47.3000N,144-38.2200E,341,29.957
6615,2008/9/28,16:53:00,00-47.5200N,144-38.1500E,342,29.969
6616,2008/9/28,16:54:00,00-47.7500N,144-38.0800E,342,29.97
6617,2008/9/28,16:55:00,00-47.9700N,144-38.0100E,342,29.958
6618,2008/9/28,16:56:00,00-48.1900N,144-37.9400E,342,29.945
6619,2008/9/28,16:57:00,00-48.4100N,144-37.8700E,342,29.926
6620,2008/9/28,16:58:00,00-48.6300N,144-37.8000E,342,29.925
6621,2008/9/28,16:59:00,00-48.8500N,144-37.7300E,342,29.923
6622,2008/9/28,17:00:00,00-49.0700N,144-37.6700E,342,29.912
6623,2008/9/28,17:01:00,00-49.2900N,144-37.6000E,342,29.905
6624,2008/9/28,17:02:00,00-49.5100N,144-37.5300E,342,29.912
6625,2008/9/28,17:03:00,00-49.7300N,144-37.4600E,342,29.919
6626,2008/9/28,17:04:00,00-49.9500N,144-37.3900E,342,29.908
6627,2008/9/28,17:05:00,00-50.1600N,144-37.3200E,342,29.899
6628,2008/9/28,17:06:00,00-50.3800N,144-37.2500E,342,29.884
6629,2008/9/28,17:07:00,00-50.6000N,144-37.1800E,342,29.895
6630,2008/9/28,17:08:00,00-50.8200N,144-37.1100E,342,29.869
6631,2008/9/28,17:09:00,00-51.0400N,144-37.0400E,342,29.832
6632,2008/9/28,17:10:00,00-51.2600N,144-36.9700E,342,29.857
6633,2008/9/28,17:11:00,00-51.4800N,144-36.9000E,342,29.878
6634,2008/9/28,17:12:00,00-51.7000N,144-36.8300E,342,29.87
6635,2008/9/28,17:13:00,00-51.9200N,144-36.7600E,342,29.875
6636,2008/9/28,17:14:00,00-52.1400N,144-36.6900E,342,29.897
6637,2008/9/28,17:15:00,00-52.3800N,144-36.6200E,342,29.908
6638,2008/9/28,17:16:00,00-52.6000N,144-36.5500E,341,29.91
6639,2008/9/28,17:17:00,00-52.8100N,144-36.4800E,341,29.891
6640,2008/9/28,17:18:00,00-53.0300N,144-36.4000E,342,29.884
6641,2008/9/28,17:19:00,00-53.2600N,144-36.3300E,342,29.89
6642,2008/9/28,17:20:00,00-53.4700N,144-36.2600E,342,29.896
6643,2008/9/28,17:21:00,00-53.6900N,144-36.1900E,341,29.879
6644,2008/9/28,17:22:00,00-53.9200N,144-36.1200E,341,29.879
6645,2008/9/28,17:23:00,00-54.1400N,144-36.0500E,342,29.871
6646,2008/9/28,17:24:00,00-54.3600N,144-35.9800E,342,29.875
6647,2008/9/28,17:25:00,00-54.5800N,144-35.9100E,342,29.878
6648,2008/9/28,17:26:00,00-54.8000N,144-35.8400E,342,29.894
6649,2008/9/28,17:27:00,00-55.0200N,144-35.7700E,342,29.904
6650,2008/9/28,17:28:00,00-55.2400N,144-35.7000E,342,29.906
6651,2008/9/28,17:29:00,00-55.4600N,144-35.6300E,342,29.916
6652,2008/9/28,17:30:00,00-55.6800N,144-35.5700E,342,29.928
6653,2008/9/28,17:31:00,00-55.9100N,144-35.5000E,342,29.935
6654,2008/9/28,17:32:00,00-56.1300N,144-35.4300E,342,29.939
6655,2008/9/28,17:33:00,00-56.3500N,144-35.3700E,342,29.928
6656,2008/9/28,17:34:00,00-56.5700N,144-35.3000E,342,29.919
6657,2008/9/28,17:35:00,00-56.7900N,144-35.2300E,343,29.901
6658,2008/9/28,17:36:00,00-57.0100N,144-35.1600E,342,29.88
6659,2008/9/28,17:37:00,00-57.2500N,144-35.0900E,342,29.865
6660,2008/9/28,17:38:00,00-57.4600N,144-35.0200E,342,29.853
6661,2008/9/28,17:39:00,00-57.6800N,144-34.9500E,342,29.858
6662,2008/9/28,17:40:00,00-57.9000N,144-34.8800E,342,29.858
6663,2008/9/28,17:41:00,00-58.1300N,144-34.8100E,342,29.855
6664,2008/9/28,17:42:00,00-58.3400N,144-34.7500E,342,29.858
6665,2008/9/28,17:43:00,00-58.5600N,144-34.6800E,342,29.855
6666,2008/9/28,17:44:00,00-58.7800N,144-34.6100E,343,29.843
6667,2008/9/28,17:45:00,00-59.0000N,144-34.5500E,343,29.831
6668,2008/9/28,17:46:00,00-59.2200N,144-34.4800E,343,29.836
6669,2008/9/28,17:47:00,00-59.4500N,144-34.4100E,343,29.831
6670,2008/9/28,17:48:00,00-59.6600N,144-34.3500E,342,29.835
6671,2008/9/28,17:49:00,00-59.8800N,144-34.2800E,342,29.856
6672,2008/9/28,17:50:00,01-00.1000N,144-34.2100E,343,29.861
6673,2008/9/28,17:51:00,01-00.3200N,144-34.1500E,342,29.869
6674,2008/9/28,17:52:00,01-00.5400N,144-34.0800E,342,29.869
6675,2008/9/28,17:53:00,01-00.7600N,144-34.0100E,342,29.876
6676,2008/9/28,17:54:00,01-00.9800N,144-33.9400E,342,29.879
6677,2008/9/28,17:55:00,01-01.2000N,144-33.8800E,343,29.869
6678,2008/9/28,17:56:00,01-01.4200N,144-33.8100E,343,29.875
6679,2008/9/28,17:57:00,01-01.6400N,144-33.7400E,342,29.871
6680,2008/9/28,17:58:00,01-01.8800N,144-33.6700E,341,29.855
6681,2008/9/28,17:59:00,01-02.1000N,144-33.6000E,342,29.845
6682,2008/9/28,18:00:00,01-02.3100N,144-33.5200E,341,29.848
6683,2008/9/28,18:01:00,01-02.5300N,144-33.4500E,341,29.853
6684,2008/9/28,18:02:00,01-02.7500N,144-33.3800E,341,29.853
6685,2008/9/28,18:03:00,01-02.9600N,144-33.3100E,341,29.854
6686,2008/9/28,18:04:00,01-03.1900N,144-33.2400E,341,29.859
6687,2008/9/28,18:05:00,01-03.4000N,144-33.1700E,341,29.858
6688,2008/9/28,18:06:00,01-03.6200N,144-33.1000E,342,29.855
6689,2008/9/28,18:07:00,01-03.8400N,144-33.0300E,341,29.861
6690,2008/9/28,18:08:00,01-04.0600N,144-32.9500E,341,29.861
6691,2008/9/28,18:09:00,01-04.2800N,144-32.8800E,341,29.873
6692,2008/9/28,18:10:00,01-04.5000N,144-32.8100E,341,29.871
6693,2008/9/28,18:11:00,01-04.7100N,144-32.7300E,341,29.87
6694,2008/9/28,18:12:00,01-04.9300N,144-32.6600E,341,29.868
6695,2008/9/28,18:13:00,01-05.1500N,144-32.5900E,341,29.871
6696,2008/9/28,18:14:00,01-05.3700N,144-32.5100E,341,29.875
6697,2008/9/28,18:15:00,01-05.5800N,144-32.4400E,341,29.878
6698,2008/9/28,18:16:00,01-05.8000N,144-32.3700E,341,29.884
6699,2008/9/28,18:17:00,01-06.0200N,144-32.3000E,341,29.885
6700,2008/9/28,18:18:00,01-06.2400N,144-32.2300E,341,29.888
6701,2008/9/28,18:19:00,01-06.4600N,144-32.1500E,341,29.877
6702,2008/9/28,18:20:00,01-06.6900N,144-32.0700E,341,29.879
6703,2008/9/28,18:21:00,01-06.9100N,144-32.0100E,342,29.884
6704,2008/9/28,18:22:00,01-07.1200N,144-31.9400E,342,29.88
6705,2008/9/28,18:23:00,01-07.3500N,144-31.8600E,341,29.88
6706,2008/9/28,18:24:00,01-07.5600N,144-31.7900E,341,29.872
6707,2008/9/28,18:25:00,01-07.7800N,144-31.7200E,341,29.874
6708,2008/9/28,18:26:00,01-08.0000N,144-31.6500E,341,29.874
6709,2008/9/28,18:27:00,01-08.2200N,144-31.5700E,341,29.876
6710,2008/9/28,18:28:00,01-08.4400N,144-31.5000E,340,29.86
6711,2008/9/28,18:29:00,01-08.6600N,144-31.4200E,341,29.868
6712,2008/9/28,18:30:00,01-08.8800N,144-31.3500E,341,29.878
6713,2008/9/28,18:31:00,01-09.0900N,144-31.2800E,341,29.887
6714,2008/9/28,18:32:00,01-09.3100N,144-31.2100E,341,29.875
6715,2008/9/28,18:33:00,01-09.5300N,144-31.1400E,341,29.87
6716,2008/9/28,18:34:00,01-09.7500N,144-31.0600E,340,29.869
6717,2008/9/28,18:35:00,01-09.9700N,144-30.9900E,341,29.87
6718,2008/9/28,18:36:00,01-10.1900N,144-30.9200E,340,29.868
6719,2008/9/28,18:37:00,01-10.4000N,144-30.8400E,340,29.863
6720,2008/9/28,18:38:00,01-10.6200N,144-30.7700E,341,29.868
6721,2008/9/28,18:39:00,01-10.8400N,144-30.7000E,341,29.861
6722,2008/9/28,18:40:00,01-11.0600N,144-30.6200E,341,29.851
6723,2008/9/28,18:41:00,01-11.2800N,144-30.5400E,340,29.853
6724,2008/9/28,18:42:00,01-11.5100N,144-30.4700E,341,29.852
6725,2008/9/28,18:43:00,01-11.7200N,144-30.4000E,341,29.861
6726,2008/9/28,18:44:00,01-11.9400N,144-30.3200E,341,29.871
6727,2008/9/28,18:45:00,01-12.1500N,144-30.2500E,341,29.866
6728,2008/9/28,18:46:00,01-12.3700N,144-30.1800E,341,29.867
6729,2008/9/28,18:47:00,01-12.5900N,144-30.1000E,340,29.869
6730,2008/9/28,18:48:00,01-12.8000N,144-30.0300E,340,29.871
6731,2008/9/28,18:49:00,01-13.0200N,144-29.9500E,341,29.875
6732,2008/9/28,18:50:00,01-13.2400N,144-29.8800E,341,29.884
6733,2008/9/28,18:51:00,01-13.4600N,144-29.8100E,341,29.885
6734,2008/9/28,18:52:00,01-13.6800N,144-29.7400E,341,29.889
6735,2008/9/28,18:53:00,01-13.8900N,144-29.6700E,341,29.888
6736,2008/9/28,18:54:00,01-14.1000N,144-29.6000E,341,29.894
6737,2008/9/28,18:55:00,01-14.3200N,144-29.5200E,341,29.893
6738,2008/9/28,18:56:00,01-14.5400N,144-29.4500E,341,29.895
6739,2008/9/28,18:57:00,01-14.7600N,144-29.3800E,341,29.902
6740,2008/9/28,18:58:00,01-14.9700N,144-29.3100E,341,29.898
6741,2008/9/28,18:59:00,01-15.1900N,144-29.2400E,341,29.89
6742,2008/9/28,19:00:00,01-15.4100N,144-29.1600E,342,29.892
6743,2008/9/28,19:01:00,01-15.6200N,144-29.0900E,342,29.894
6744,2008/9/28,19:02:00,01-15.8500N,144-29.0200E,343,29.898
6745,2008/9/28,19:03:00,01-16.0800N,144-28.9500E,342,29.885
6746,2008/9/28,19:04:00,01-16.2900N,144-28.8800E,342,29.883
6747,2008/9/28,19:05:00,01-16.5100N,144-28.8100E,341,29.882
6748,2008/9/28,19:06:00,01-16.7300N,144-28.7400E,341,29.891
6749,2008/9/28,19:07:00,01-16.9400N,144-28.6700E,341,29.89
6750,2008/9/28,19:08:00,01-17.1600N,144-28.6000E,341,29.873
6751,2008/9/28,19:09:00,01-17.3700N,144-28.5300E,342,29.879
6752,2008/9/28,19:10:00,01-17.5800N,144-28.4600E,342,29.88
6753,2008/9/28,19:11:00,01-17.8000N,144-28.3900E,341,29.888
6754,2008/9/28,19:12:00,01-18.0200N,144-28.3200E,341,29.892
6755,2008/9/28,19:13:00,01-18.2300N,144-28.2500E,341,29.887
6756,2008/9/28,19:14:00,01-18.4400N,144-28.1800E,341,29.891
6757,2008/9/28,19:15:00,01-18.6500N,144-28.1100E,341,29.877
6758,2008/9/28,19:16:00,01-18.8700N,144-28.0400E,341,29.881
6759,2008/9/28,19:17:00,01-19.0800N,144-27.9700E,341,29.863
6760,2008/9/28,19:18:00,01-19.2900N,144-27.9000E,341,29.86
6761,2008/9/28,19:19:00,01-19.5100N,144-27.8300E,340,29.86
6762,2008/9/28,19:20:00,01-19.7200N,144-27.7600E,340,29.858
6763,2008/9/28,19:21:00,01-19.9300N,144-27.6900E,341,29.857
6764,2008/9/28,19:22:00,01-20.1400N,144-27.6100E,340,29.849
6765,2008/9/28,19:23:00,01-20.3600N,144-27.5400E,341,29.848
6766,2008/9/28,19:24:00,01-20.5900N,144-27.4600E,341,29.835
6767,2008/9/28,19:25:00,01-20.8100N,144-27.3900E,341,29.835
6768,2008/9/28,19:26:00,01-21.0200N,144-27.3200E,340,29.812
6769,2008/9/28,19:27:00,01-21.2400N,144-27.2400E,341,29.819
6770,2008/9/28,19:28:00,01-21.4600N,144-27.1700E,341,29.84
6771,2008/9/28,19:29:00,01-21.6700N,144-27.1000E,341,29.854
6772,2008/9/28,19:30:00,01-21.8900N,144-27.0300E,341,29.85
6773,2008/9/28,19:31:00,01-22.1100N,144-26.9600E,341,29.851
6774,2008/9/28,19:32:00,01-22.3300N,144-26.8900E,341,29.847
6775,2008/9/28,19:33:00,01-22.5500N,144-26.8200E,341,29.866
6776,2008/9/28,19:34:00,01-22.7600N,144-26.7500E,341,29.882
6777,2008/9/28,19:35:00,01-22.9800N,144-26.6800E,341,29.894
6778,2008/9/28,19:36:00,01-23.2000N,144-26.6000E,341,29.91
6779,2008/9/28,19:37:00,01-23.4200N,144-26.5300E,341,29.92
6780,2008/9/28,19:38:00,01-23.6400N,144-26.4600E,341,29.901
6781,2008/9/28,19:39:00,01-23.8600N,144-26.3900E,341,29.928
6782,2008/9/28,19:40:00,01-24.0700N,144-26.3200E,341,29.895
6783,2008/9/28,19:41:00,01-24.3000N,144-26.2400E,341,29.896
6784,2008/9/28,19:42:00,01-24.5200N,144-26.1700E,341,29.87
6785,2008/9/28,19:43:00,01-24.7300N,144-26.1000E,342,29.871
6786,2008/9/28,19:44:00,01-24.9500N,144-26.0300E,341,29.893
6787,2008/9/28,19:45:00,01-25.1800N,144-25.9500E,342,29.865
6788,2008/9/28,19:46:00,01-25.4100N,144-25.8800E,342,29.862
6789,2008/9/28,19:47:00,01-25.6200N,144-25.8100E,341,29.847
6790,2008/9/28,19:48:00,01-25.8400N,144-25.7400E,341,29.863
6791,2008/9/28,19:49:00,01-26.0600N,144-25.6700E,341,29.887